[[{"header":{"parameterUnit":"m.s-1","parameterCategory":1,"la1":30.2991,"la2":30.254,"lo1":-89.0895,"lo2":-89.0444,"dy":0.0017,"dx":0.0017,"nx":28,"ny":28,"refTime":"2024-07-27T21:00:00:Z","depth":0,"parameterNumber":2,"parameterNumberName":"U-component_of_WINDS"},"data":[0,0,0,0,0,0,0,0,0,0,0,0,0,0,0,0,0,0,0,0,0,0,0,0,0,0,0,0,0,0,0,0,0,0,0,0,0,0,0,0,0,0,0,0,0,0,0,0,0,0,0,0,0,0,0,0,0,0,3.055,3.0551,0,3.0624,3.0625,3.0626,3.0611,3.061,3.0609,3.0607,3.069,3.0694,3.0697,0,0,0,0,0,0,0,0,0,0,0,0,0,3.0404,3.0407,3.055,3.0551,3.0552,3.0624,3.0625,3.0626,3.0612,3.061,3.0608,3.0607,3.0689,3.0693,3.0697,0,0,0,0,0,0,0,0,0,0,0,0,0,3.0472,3.0408,3.055,3.0553,3.0554,3.0623,3.0625,3.0626,3.0612,3.061,3.0608,3.0606,3.0688,3.0693,3.0698,3.077,0,0,3.0714,3.0716,0,0,0,0,0,0,0,0,3.0468,3.0477,3.0552,3.0553,3.0554,3.0606,3.0604,3.0675,3.0613,3.059,3.0607,3.0605,3.0664,3.0671,3.069,3.0774,3.0778,3.0714,3.0717,3.072,3.0721,0,0,0,0,0,0,0,3.0464,3.0474,3.0579,3.0553,3.0554,3.0554,3.0561,3.0617,3.0638,3.0592,3.0591,3.06,3.0665,3.0685,3.0692,3.0779,3.0714,3.0719,3.0722,3.0724,3.093,3.0932,0,0,0,0,0,0,3.0457,3.047,3.0577,3.0581,3.0505,3.0558,3.0566,3.0592,3.0637,3.0642,3.0601,3.0599,3.0677,3.0686,3.0695,3.0784,3.072,3.0724,3.0727,3.0928,3.0931,3.0933,0,0,0,0,0,0,3.0454,3.0466,3.0574,3.0526,3.0539,3.0562,3.0591,3.0594,3.0614,3.0644,3.0649,3.0618,3.0676,3.0687,3.0752,3.0787,3.0727,3.0731,3.0925,3.0929,3.0932,3.0963,0,0,0,0,0,0,3.0449,3.0465,3.0491,3.0526,3.0542,3.0627,3.0593,3.0597,3.0622,3.062,3.0661,3.0666,3.0675,3.0744,3.0757,3.0793,3.0735,3.0922,3.0927,3.0931,3.0959,3.0967,3.0974,0,0,0,0,0,3.0444,3.0497,3.0492,3.0505,3.0574,3.0629,3.0639,3.0646,3.0625,3.0653,3.0673,3.0664,3.0781,3.0751,3.0765,3.0803,3.092,3.0925,3.0931,3.0955,3.0965,3.0974,0,0,0,0,0,0,3.0467,3.0502,3.0497,3.0562,3.0593,3.0627,3.0661,3.0656,3.0695,3.0691,3.0702,3.0711,3.0777,3.0797,3.0763,3.0877,3.0848,3.0856,3.0862,3.0872,3.0879,3.0873,3.074,0,0,0,0,0,3.048,3.0519,3.0548,3.0604,3.0619,3.0638,3.0662,3.0666,3.0699,3.0712,3.0736,3.0771,3.0816,3.0845,3.0887,3.0962,3.0972,3.0995,3.1003,3.1009,3.1016,3.106,3.1071,3.0951,3.0951,3.0951,0,0,3.0506,3.053,3.0555,3.0609,3.0633,3.0677,3.0649,3.0695,3.0729,3.072,3.0782,3.0802,3.0841,3.0911,3.0944,3.093,3.1052,3.1016,3.102,3.1025,3.1067,3.1078,3.1088,3.0954,3.0954,3.0953,0,0,3.0577,3.0598,3.0647,3.0672,3.0708,3.0721,3.0733,3.0768,3.078,3.0842,3.0837,3.0879,3.0954,3.0983,3.1008,3.1092,3.1087,3.1106,3.1146,3.1188,3.1198,3.1206,3.1238,3.1249,3.1113,3.1113,3.1114,0,3.0606,3.0668,3.0674,3.0721,3.0747,3.0739,3.0791,3.0816,3.0865,3.0884,3.0867,3.0964,3.099,3.1068,3.1089,3.1108,3.1125,3.1101,3.1195,3.1204,3.1212,3.1243,3.1254,3.1116,3.1115,3.1115,3.1115,0,3.0704,3.0748,3.0784,3.083,3.0859,3.0909,3.0924,3.0954,3.0956,3.0971,3.1037,3.1067,3.1117,3.1136,3.1139,3.1216,3.1206,3.1192,3.1163,3.1226,3.1254,3.1266,3.1119,3.1118,3.1117,3.1117,0,0,3.079,3.0839,3.0852,3.0874,3.0914,3.095,3.1001,3.1047,3.1074,3.1109,3.1154,3.1219,3.1207,3.1235,3.1242,3.1279,3.1346,3.1261,3.1262,3.1276,3.1435,3.1445,3.1458,3.1343,3.1345,3.1347,3.1432,0,3.0865,3.0951,3.0959,3.1038,3.1081,3.1076,3.112,3.1152,3.1168,3.1209,3.1228,3.1274,3.1254,3.1271,3.1308,3.133,3.1378,3.1324,3.1387,3.1389,3.1377,3.1473,3.1484,3.1563,3.1443,3.1445,3.1447,0,3.0964,3.1,3.1083,3.112,3.1138,3.1177,3.1222,3.126,3.1297,3.1307,3.1339,3.134,3.1396,3.1365,3.1443,3.1406,3.1433,3.1448,3.1451,3.1458,3.1421,3.1483,3.1588,3.16,3.1464,3.1463,3.1462,0,3.102,3.109,3.1149,3.1168,3.1212,3.124,3.126,3.1295,3.1323,3.1363,3.1382,3.1429,3.1455,3.1493,3.1509,3.1484,3.1587,3.1556,3.1599,3.1599,3.1621,3.1619,3.1732,3.1637,3.1637,3.1637,3.1636,0,3.1104,3.1155,3.1175,3.1211,3.127,3.128,3.1338,3.1358,3.1389,3.1431,3.1431,3.1471,3.1489,3.1533,3.1546,3.161,3.1622,3.1633,3.1636,3.1633,3.1632,3.1651,3.1646,3.164,3.1639,3.1639,3.1638,0,3.1176,3.1191,3.1255,3.1292,3.1302,3.1344,3.1376,3.1413,3.1429,3.1483,3.1497,3.1523,3.1575,3.1594,3.1658,3.1667,3.1742,3.174,3.1728,3.1729,3.1771,3.1767,3.19,3.1919,3.1811,3.1812,3.1813,0,3.1228,3.1267,3.1308,3.1335,3.1356,3.14,3.1429,3.1441,3.1472,3.1518,3.155,3.1601,3.1643,3.1727,3.1754,3.1803,3.1803,3.1847,3.1811,3.1807,3.1805,3.1803,3.1808,3.1853,3.1854,3.1855,3.1856,0,3.132,3.1326,3.1366,3.141,3.1444,3.148,3.1514,3.1538,3.1556,3.1591,3.1643,3.1675,3.174,3.1792,3.1843,3.1867,3.1866,3.1867,3.188,3.1877,3.1869,3.1875,3.1747,3.1864,3.1863,3.1863,3.1862,3.1862,3.1385,3.142,3.1454,3.15,3.1527,3.156,3.1597,3.1618,3.166,3.1713,3.1719,3.1775,3.1814,3.1883,3.1909,3.1955,3.1944,3.1962,3.1967,3.1971,3.1974,3.1862,3.1965,3.1965,3.1965,3.1964,3.1964,0,3.1478,3.15,3.1542,3.159,3.1626,3.162,3.1659,3.169,3.1739,3.1775,3.1816,3.1877,3.1928,3.1959,3.2011,3.2042,3.2043,3.2056,3.2054,3.206,3.1981,3.1965,3.2054,3.2054,3.2054,3.2054,3.2054,3.2054,3.1531,3.159,3.1601,3.1675,3.1698,3.1752,3.1775,3.1806,3.1834,3.1902,3.1944,3.1963,3.1998,3.2052,3.21,3.2108,3.2127,3.2141,3.2148,3.2074,3.2065,3.2056,3.2041,3.2145,3.2145,3.2223,3.2224,3.2224]},{"header":{"parameterUnit":"m.s-1","parameterCategory":1,"la1":30.2991,"la2":30.254,"lo1":-89.0895,"lo2":-89.0444,"dy":0.0017,"dx":0.0017,"nx":28,"ny":28,"refTime":"2024-07-27T21:00:00:Z","depth":0,"parameterNumber":3,"parameterNumberName":"V-component_of_WINDS"},"data":[0,0,0,0,0,0,0,0,0,0,0,0,0,0,0,0,0,0,0,0,0,0,0,0,0,0,0,0,0,0,0,0,0,0,0,0,0,0,0,0,0,0,0,0,0,0,0,0,0,0,0,0,0,0,0,0,0,0,1.8426,1.8428,0,1.8637,1.8639,1.8642,1.8666,1.8663,1.8661,1.8659,1.8876,1.8883,1.8891,0,0,0,0,0,0,0,0,0,0,0,0,0,1.804,1.8047,1.8426,1.8428,1.8431,1.8636,1.8639,1.8642,1.8666,1.8663,1.8661,1.8658,1.8873,1.8883,1.8892,0,0,0,0,0,0,0,0,0,0,0,0,0,1.8225,1.805,1.8425,1.8468,1.8473,1.8636,1.8639,1.8643,1.8666,1.8663,1.866,1.8657,1.887,1.8882,1.8893,1.9028,0,0,1.8929,1.8934,0,0,0,0,0,0,0,0,1.8215,1.8239,1.8459,1.8465,1.8472,1.8622,1.8583,1.8772,1.8667,1.8593,1.8659,1.8656,1.8794,1.8812,1.8858,1.9038,1.9047,1.893,1.8937,1.8942,1.8945,0,0,0,0,0,0,0,1.8202,1.823,1.8509,1.8462,1.847,1.8475,1.8498,1.8619,1.8709,1.8599,1.8602,1.8626,1.8797,1.8847,1.8863,1.9051,1.8929,1.894,1.8947,1.8951,1.9346,1.9349,0,0,0,0,0,0,1.8181,1.822,1.8503,1.8516,1.8333,1.8484,1.851,1.8577,1.8707,1.8724,1.8629,1.8627,1.8829,1.885,1.8871,1.9034,1.8941,1.8952,1.8959,1.9343,1.9347,1.9351,0,0,0,0,0,0,1.8173,1.8206,1.8494,1.8368,1.8405,1.8494,1.8569,1.8583,1.8633,1.873,1.8746,1.8664,1.8827,1.8855,1.8988,1.9042,1.8958,1.8968,1.9338,1.9344,1.9349,1.9364,0,0,0,0,0,0,1.8162,1.8203,1.8257,1.8369,1.8412,1.8608,1.8573,1.8589,1.8652,1.8652,1.8767,1.8783,1.8827,1.897,1.8999,1.9057,1.8977,1.9334,1.9341,1.9347,1.9359,1.9369,1.9378,0,0,0,0,0,1.8148,1.8254,1.8259,1.8293,1.848,1.8611,1.8636,1.8684,1.8657,1.871,1.8771,1.8779,1.9031,1.8983,1.9016,1.9078,1.9331,1.9339,1.9347,1.9355,1.9367,1.9378,0,0,0,0,0,0,1.8147,1.827,1.8277,1.8423,1.8506,1.8615,1.8685,1.8696,1.879,1.8785,1.8841,1.8867,1.8996,1.9051,1.8995,1.9213,1.9178,1.9193,1.9173,1.9186,1.9195,1.9179,1.8987,0,0,0,0,0,1.8164,1.826,1.8362,1.848,1.8522,1.8595,1.8655,1.8684,1.8773,1.8809,1.888,1.8966,1.9064,1.9128,1.9224,1.9366,1.939,1.9425,1.9434,1.9441,1.9454,1.9528,1.9544,1.9377,1.9377,1.9377,0,0,1.82,1.8278,1.8336,1.8482,1.855,1.8647,1.8625,1.8731,1.8802,1.8825,1.8954,1.9008,1.9107,1.9244,1.9308,1.9294,1.9504,1.9451,1.9456,1.9465,1.9538,1.9554,1.9568,1.9382,1.9381,1.938,0,0,1.8314,1.8384,1.8489,1.8556,1.8659,1.8706,1.8731,1.8838,1.8874,1.9004,1.9021,1.9107,1.9276,1.9345,1.9402,1.9535,1.9544,1.9565,1.9614,1.9687,1.97,1.9712,1.9756,1.9772,1.9577,1.9577,1.9577,0,1.8346,1.8493,1.8541,1.8644,1.8706,1.8728,1.8833,1.8897,1.9026,1.9067,1.9048,1.9257,1.9326,1.9477,1.9509,1.9555,1.9583,1.9553,1.9694,1.9706,1.9718,1.9762,1.9779,1.9578,1.9578,1.9578,1.9578,0,1.8525,1.8627,1.8699,1.882,1.8891,1.8994,1.9056,1.9121,1.9142,1.9191,1.932,1.9402,1.9513,1.9551,1.9575,1.9704,1.9691,1.9683,1.9649,1.9735,1.9776,1.9794,1.9581,1.958,1.958,1.9579,0,0,1.8649,1.8792,1.8817,1.8871,1.8983,1.9062,1.9164,1.9271,1.9324,1.9411,1.9497,1.9637,1.9627,1.9692,1.9723,1.9786,1.9882,1.9769,1.9772,1.9785,2.0026,2.003,2.0049,1.9888,1.9891,1.9894,2.0016,0,1.8775,1.8958,1.9002,1.9158,1.9251,1.927,1.9359,1.9436,1.9483,1.9567,1.9619,1.9715,1.9698,1.9736,1.98,1.9857,1.9931,1.9849,1.9966,1.997,1.994,2.0072,2.0079,2.019,2.0033,2.0036,2.0038,0,1.8948,1.9035,1.9201,1.9296,1.9336,1.9416,1.9514,1.9595,1.9681,1.9711,1.9779,1.9802,1.9907,1.9866,2.001,1.9953,2.0003,2.0037,2.0043,2.0056,2.0009,2.0086,2.0228,2.0244,2.0065,2.0063,2.0061,0,1.9018,1.9178,1.9296,1.9341,1.9457,1.9511,1.9561,1.9644,1.9704,1.979,1.9829,1.9926,1.9979,2.0053,2.01,2.0067,2.0238,2.0203,2.0263,2.0262,2.0299,2.0296,2.0449,2.0333,2.0333,2.0332,2.0332,0,1.9154,1.9253,1.9328,1.9402,1.9512,1.9559,1.9667,1.9718,1.979,1.9872,1.9895,1.997,2.0028,2.0111,2.0148,2.0259,2.0283,2.0308,2.0317,2.0306,2.0302,2.034,2.0333,2.0337,2.0336,2.0335,2.0334,0,1.9252,1.9307,1.9436,1.9533,1.9559,1.9636,1.9718,1.9788,1.9833,1.9936,1.9962,2.0033,2.0131,2.0185,2.0309,2.0333,2.0456,2.0462,2.0427,2.0431,2.0487,2.048,2.0669,2.0695,2.0562,2.0563,2.0564,0,1.9335,1.9411,1.9515,1.957,1.9621,1.9711,1.9771,1.9818,1.988,1.998,2.0038,2.0136,2.0218,2.0373,2.0435,2.0528,2.0535,2.0594,2.0549,2.0534,2.0533,2.0527,2.0534,2.0602,2.0603,2.0604,2.0605,0,1.9475,1.9497,1.9583,1.9677,1.9747,1.9824,1.99,1.9944,2.0003,2.0071,2.017,2.0233,2.0357,2.0454,2.0551,2.0601,2.0612,2.0618,2.0637,2.0626,2.0602,2.0613,2.0447,2.0614,2.0613,2.0613,2.0612,2.0612,1.9567,1.9634,1.9716,1.981,1.9871,1.994,2.0009,2.0061,2.0145,2.0249,2.0272,2.0376,2.0455,2.0586,2.0638,2.0719,2.0707,2.0735,2.0742,2.0748,2.0748,2.0589,2.0737,2.0737,2.0736,2.0736,2.0736,0,1.9707,1.9759,1.9844,1.9948,2.0021,2.0023,2.0106,2.0166,2.0257,2.033,2.0409,2.052,2.0613,2.068,2.0773,2.0825,2.0832,2.0847,2.0844,2.0854,2.0755,2.0728,2.084,2.084,2.084,2.084,2.084,2.084,1.9788,1.9901,1.9931,2.0073,2.0124,2.0226,2.0272,2.0335,2.0392,2.0516,2.0592,2.0635,2.0704,2.0802,2.0886,2.0903,2.0935,2.095,2.0967,2.0873,2.0862,2.0852,2.0827,2.0957,2.0957,2.106,2.1061,2.1062]}]]